FW7364 Weather Reports


time (UTC)temp
C
wind
direction
speed
KPH
gust
KPH
rain 1hr
cm
rain 24hr
cm
rain mn
cm
humidity
%
barometer
mb
20260503175305 16 205 8.0 17.7 0.00 0.00 0.00 74 1011.7
20260503175142 16 231 9.7 16.1 0.00 0.00 0.00 73 1011.7
20260503174321 15 267 8.0 17.7 0.00 0.00 0.00 75 1011.7
20260503173547 15 261 11.3 17.7 0.00 0.00 0.00 74 1011.7
20260503173047 15 246 9.7 17.7 0.00 0.00 0.00 74 1011.7
20260503172544 16 245 8.0 16.1 0.00 0.00 0.00 74 1011.7
20260503172045 15 282 9.7 16.1 0.00 0.00 0.00 75 1011.6
20260503171544 15 253 12.9 17.7 0.00 0.00 0.00 76 1011.7
20260503171046 15 240 12.9 17.7 0.00 0.00 0.00 76 1011.6
20260503170807 15 269 11.3 17.7 0.00 0.00 0.00 76 1011.6
20260503150535 12 258 9.7 14.5 0.00 0.00 0.00 84 1010.7
20260503150254 12 249 11.3 16.1 0.00 0.00 0.00 84 1010.7
20260503130942 11 279 9.7 19.3 0.00 0.00 0.00 86 1009.1
20260503130436 11 261 8.0 17.7 0.00 0.00 0.00 86 1009.1
20260503110719 12 273 8.0 12.9 0.00 0.00 0.00 88 1008.9
20260503110212 11 250 4.8 12.9 0.00 0.00 0.00 88 1008.9
20260503090132 12 305 8.0 14.5 0.00 0.00 0.00 87 1008.9
20260503081624 12 318 3.2 8.0 0.00 0.00 0.00 87 1009.5
20260503081125 12 307 3.2 6.4 0.00 0.00 0.00 87 1009.5
20260503080626 12 307 3.2 6.4 0.00 0.00 0.00 87 1009.6
20260503080126 12 303 3.2 6.4 0.00 0.00 0.00 87 1009.5
20260503072617 12 288 8.0 12.9 0.00 0.00 0.00 86 1009.6
20260503072111 12 291 8.0 14.5 0.00 0.00 0.00 86 1009.6
20260503071605 12 285 9.7 17.7 0.00 0.00 0.00 85 1009.6
20260503071100 12 286 11.3 17.7 0.00 0.00 0.00 85 1009.8
20260503070825 12 286 9.7 16.1 0.00 0.00 0.00 86 1009.7
20260503055052 13 294 8.0 14.5 0.00 0.00 0.00 85 1010.1
20260503054553 13 291 9.7 14.5 0.00 0.00 0.00 85 1010.1
20260503054053 13 299 9.7 14.5 0.00 0.00 0.00 84 1010.1
20260503053554 13 290 9.7 16.1 0.00 0.00 0.00 84 1010.1
20260503053052 13 292 8.0 16.1 0.00 0.00 0.00 84 1010.1
20260503052545 13 276 9.7 16.1 0.00 0.00 0.00 84 1010.2
20260503052041 13 267 11.3 16.1 0.00 0.00 0.00 84 1010.2
20260503051807 13 286 11.3 17.7 0.00 0.00 0.00 83 1010.2
20260503051042 13 276 9.7 17.7 0.00 0.00 0.00 83 1010.2
20260503050552 13 278 11.3 20.9 0.00 0.00 0.00 83 1010.2
20260503050044 13 256 14.5 24.1 0.00 0.00 0.00 82 1010.1
20260503045543 13 276 14.5 24.1 0.00 0.00 0.00 82 1010.0
20260503045042 13 259 12.9 22.5 0.00 0.00 0.00 82 1010.0
20260503044543 13 271 12.9 22.5 0.00 0.00 0.00 81 1009.9
20260503044042 13 269 14.5 24.1 0.00 0.00 0.00 81 1009.9
20260503043542 14 270 11.3 24.1 0.00 0.00 0.00 81 1009.9
20260503043041 14 265 9.7 17.7 0.00 0.00 0.00 81 1009.9
20260503042802 14 275 12.9 22.5 0.00 0.00 0.00 80 1009.9
20260503042041 14 277 17.7 27.4 0.00 0.00 0.00 80 1009.8
20260503041543 14 250 17.7 27.4 0.00 0.00 0.00 79 1009.6
20260503041035 14 263 14.5 29.0 0.00 0.00 0.00 79 1009.5
20260503040528 14 267 17.7 29.0 0.00 0.00 0.00 78 1009.5
20260503040022 15 277 17.7 29.0 0.00 0.00 0.00 78 1009.4
20260503035516 15 265 17.7 29.0 0.00 0.00 0.00 77 1009.4
20260503035015 15 258 14.5 24.1 0.00 0.00 0.00 77 1009.2
20260503034732 15 244 12.9 20.9 0.00 0.00 0.00 78 1009.2
20260503033958 15 265 14.5 20.9 0.00 0.00 0.00 78 1009.2
20260503033452 15 259 14.5 20.9 0.00 0.00 0.00 77 1009.2
20260503032946 15 266 11.3 17.7 0.00 0.00 0.00 77 1009.2
20260503032441 15 264 8.0 14.5 0.00 0.00 0.00 77 1009.2
20260503031935 15 268 8.0 12.9 0.00 0.00 0.00 76 1009.2
20260503031428 16 265 9.7 17.7 0.00 0.00 0.00 75 1009.2
20260503030922 16 276 12.9 17.7 0.00 0.00 0.00 75 1009.1
20260503030417 16 274 12.9 17.7 0.00 0.00 0.00 74 1009.0
20260503025911 16 276 11.3 16.1 0.00 0.00 0.00 73 1009.0
20260503025404 16 274 11.3 16.1 0.00 0.00 0.00 73 1009.0
20260503024858 16 280 9.7 17.7 0.00 0.00 0.00 72 1009.0
20260503024838 17 288 11.3 19.3 0.00 0.00 0.00 71 1009.0
20260503023846 17 296 12.9 19.3 0.00 0.00 0.00 71 1009.0
20260503023340 17 303 12.9 19.3 0.00 0.00 0.00 70 1008.9
20260503023055 17 284 12.9 20.9 0.00 0.00 0.00 70 1008.7
20260503022329 17 290 12.9 20.9 0.00 0.00 0.00 69 1008.7
20260503021822 17 286 12.9 20.9 0.00 0.00 0.00 69 1008.7
20260503021322 18 286 12.9 20.9 0.00 0.00 0.00 68 1008.7
20260503020823 18 271 14.5 20.9 0.00 0.00 0.00 68 1008.7
20260503020549 18 298 14.5 20.9 0.00 0.00 0.00 67 1008.7
20260503015823 18 286 12.9 20.9 0.00 0.00 0.00 67 1008.7
20260503015322 18 292 12.9 17.7 0.00 0.00 0.00 67 1008.7
20260503014819 18 292 12.9 19.3 0.00 0.00 0.00 67 1008.8
20260503014320 18 296 14.5 22.5 0.00 0.00 0.00 67 1008.8
20260503014042 18 282 12.9 22.5 0.00 0.00 0.00 67 1008.8
20260503013319 19 309 11.3 19.3 0.00 0.00 0.00 68 1008.7
20260503012819 19 293 11.3 19.3 0.00 0.00 0.00 68 1008.8
20260503012321 19 303 11.3 19.3 0.00 0.00 0.00 67 1008.8
20260503011819 20 308 11.3 20.9 0.00 0.00 0.00 67 1008.8
20260503011319 20 311 12.9 20.9 0.00 0.00 0.00 67 1008.8
20260503010823 20 301 11.3 16.1 0.00 0.00 0.00 65 1008.8
20260503010324 20 257 12.9 19.3 0.00 0.00 0.00 65 1008.8
20260503005822 20 295 12.9 19.3 0.00 0.00 0.00 64 1008.7
20260503005323 21 288 12.9 19.3 0.00 0.00 0.00 63 1008.7
20260503005041 21 323 11.3 19.3 0.00 0.00 0.00 62 1008.7
20260503004311 21 336 12.9 19.3 0.00 0.00 0.00 59 1008.8
20260503004026 21 298 11.3 19.3 0.00 0.00 0.00 59 1008.7
20260503003259 21 321 11.3 17.7 0.00 0.00 0.00 60 1008.7
20260503002757 21 294 12.9 20.9 0.00 0.00 0.00 60 1008.8
20260503002257 21 302 14.5 20.9 0.00 0.00 0.00 60 1008.7
20260503002021 21 264 14.5 20.9 0.00 0.00 0.00 61 1008.7
20260503001257 22 309 12.9 22.5 0.00 0.00 0.00 60 1008.7
20260503001020 22 266 11.3 22.5 0.00 0.00 0.00 60 1008.7
20260503000257 22 317 12.9 19.3 0.00 0.00 0.00 59 1008.8
20260503000026 22 294 12.9 19.3 0.00 0.00 0.00 59 1008.6
20260502235259 22 307 14.5 22.5 0.00 0.00 0.00 57 1008.7
20260502234757 22 283 12.9 22.5 0.00 0.00 0.00 59 1008.8
20260502234258 23 289 11.3 22.5 0.00 0.00 0.00 58 1008.8
20260502234019 23 296 12.9 22.5 0.00 0.00 0.00 57 1008.8
20260502233258 22 307 12.9 22.5 0.00 0.00 0.00 59 1008.9
20260502232752 22 293 11.3 22.5 0.00 0.00 0.00 59 1009.1
20260502232254 22 306 12.9 24.1 0.00 0.00 0.00 60 1009.0
20260502231752 22 283 14.5 24.1 0.00 0.00 0.00 60 1009.2
20260502231252 22 306 11.3 19.3 0.00 0.00 0.00 61 1009.2
20260502230753 22 296 11.3 19.3 0.00 0.00 0.00 61 1009.2
20260502230254 22 290 11.3 19.3 0.00 0.00 0.00 61 1009.3
20260502225752 22 295 12.9 20.9 0.00 0.00 0.00 60 1009.4
20260502225252 22 323 12.9 20.9 0.00 0.00 0.00 61 1009.5
20260502224755 22 268 8.0 17.7 0.00 0.00 0.00 62 1009.5
20260502224254 22 296 8.0 17.7 0.00 0.00 0.00 61 1009.5
20260502223755 22 292 9.7 19.3 0.00 0.00 0.00 60 1009.6
20260502223252 22 273 8.0 19.3 0.00 0.00 0.00 61 1009.7
20260502223014 22 263 8.0 14.5 0.00 0.00 0.00 62 1009.7
20260502222254 22 230 6.4 14.5 0.00 0.00 0.00 62 1009.7
20260502221754 22 281 6.4 16.1 0.00 0.00 0.00 62 1009.7
20260502221250 22 303 8.0 16.1 0.00 0.00 0.00 62 1009.8
20260502220751 22 264 8.0 14.5 0.00 0.00 0.00 61 1009.9
20260502220250 22 274 8.0 14.5 0.00 0.00 0.00 61 1009.9
20260502215751 22 284 9.7 14.5 0.00 0.00 0.00 62 1010.0
20260502215244 22 313 9.7 16.1 0.00 0.00 0.00 61 1010.0
20260502214737 22 282 8.0 16.1 0.00 0.00 0.00 63 1010.1
20260502214231 21 260 8.0 16.1 0.00 0.00 0.00 63 1010.1
20260502213726 22 317 8.0 14.5 0.00 0.00 0.00 63 1010.2
20260502213226 21 256 6.4 12.9 0.00 0.00 0.00 64 1010.3
20260502212728 21 255 8.0 16.1 0.00 0.00 0.00 63 1010.3
20260502212228 21 248 8.0 16.1 0.00 0.00 0.00 63 1010.4
20260502211726 21 249 6.4 14.5 0.00 0.00 0.00 64 1010.5
20260502211225 21 259 6.4 17.7 0.00 0.00 0.00 65 1010.5
20260502210947 21 246 8.0 17.7 0.00 0.00 0.00 64 1010.6
20260502210220 21 253 9.7 16.1 0.00 0.00 0.00 63 1010.7
20260502205720 21 298 8.0 16.1 0.00 0.00 0.00 62 1010.8
20260502205702 21 332 6.4 12.9 0.00 0.00 0.00 64 1010.9
20260502204721 20 253 9.7 17.7 0.00 0.00 0.00 65 1010.9
20260502204443 20 246 9.7 17.7 0.00 0.00 0.00 65 1010.9
20260502203718 21 218 9.7 16.1 0.00 0.00 0.00 67 1011.1
20260502203221 20 276 9.7 19.3 0.00 0.00 0.00 67 1011.1
20260502202722 20 235 11.3 19.3 0.00 0.00 0.00 67 1011.1
20260502202222 20 267 11.3 19.3 0.00 0.00 0.00 66 1011.1
20260502201722 20 249 8.0 14.5 0.00 0.00 0.00 68 1011.2
20260502201445 19 286 4.8 14.5 0.00 0.00 0.00 70 1011.3
20260502200710 18 328 4.8 14.5 0.00 0.00 0.00 71 1011.3
20260502200204 18 255 6.4 14.5 0.00 0.00 0.00 72 1011.4
20260502195658 18 310 6.4 14.5 0.00 0.00 0.00 71 1011.4
20260502195152 17 325 8.0 12.9 0.00 0.00 0.00 74 1011.5
20260502194646 17 257 8.0 12.9 0.00 0.00 0.00 73 1011.5
20260502194140 17 288 8.0 14.5 0.00 0.00 0.00 73 1011.6
20260502193634 17 290 8.0 14.5 0.00 0.00 0.00 74 1011.6
20260502193128 17 271 8.0 14.5 0.00 0.00 0.00 73 1011.6
20260502192623 17 309 9.7 17.7 0.00 0.00 0.00 74 1011.6
20260502192117 17 298 11.3 17.7 0.00 0.00 0.00 73 1011.6
20260502191610 17 302 12.9 20.9 0.00 0.00 0.00 72 1011.7
20260502191105 17 294 11.3 20.9 0.00 0.00 0.00 71 1011.7
20260502190559 18 272 11.3 22.5 0.00 0.00 0.00 69 1011.7
20260502190053 18 290 12.9 22.5 0.00 0.00 0.00 70 1011.6
20260502185546 19 294 12.9 24.1 0.00 0.00 0.00 69 1011.7
20260502185041 19 273 12.9 24.1 0.00 0.00 0.00 68 1011.7
20260502184759 20 294 14.5 22.5 0.00 0.00 0.00 70 1011.6
20260502184028 19 307 14.5 22.5 0.00 0.00 0.00 71 1011.6
20260502183521 19 268 11.3 22.5 0.00 0.00 0.00 69 1011.6
20260502183016 19 277 11.3 22.5 0.00 0.00 0.00 70 1011.7
20260502182510 19 254 12.9 22.5 0.00 0.00 0.00 70 1011.7
20260502182009 18 329 14.5 22.5 0.00 0.00 0.00 71 1011.6
20260502181457 18 267 16.1 25.7 0.00 0.00 0.00 72 1011.6
20260502180952 17 255 14.5 25.7 0.00 0.00 0.00 72 1011.7
20260502180446 17 285 12.9 20.9 0.00 0.00 0.00 73 1011.7
20260502180202 17 290 12.9 19.3 0.00 0.00 0.00 74 1011.6